COSMOS 2303

Satellite information

Favourite Embed

Satellite Type and Status

PAYLOADIN ORBIT

Key statistics

Satellite COSMOS 2303 at a glance.

Uptime

11153

Days in orbit

Revolutions

≈ 12.6

Per day

Orbit

LEO

Low Earth Orbit

Inclination

82.6

Latest

Satellite identification and parameters

Extended collection of information and parameters for COSMOS 2303.

Object identification

Identified? True

Debris? False

Object name: COSMOS 2303

International designator: 1994-086E

Object number (NORAD): 23445

Object ID (CCSDS): 23445

Country: COMMONWEALTH OF INDEPENDENT STATES (CIS)

Current information (Y/N): Y

RCS size: LARGE

Orbital parameters

Period: 114.236 minutes

Inclination: 82.5731 deg

SMA: 7798.809 km

Apoapsis: 1428.392 km

Periapsis: 1412.957 km

RAAN: 204.5263 deg

Eccentricy: 0.0009896

Argument of periapsis: 262.1339 deg

Mean anomaly: 271.4539 deg

Mean motion: 12.60550662 rev/day

Mean motion (dot): 0.00000011 rev/day2

B* drag term: 0.0000032497 1/REarth

Two-line elements (TLE)

Creation date: July 9, 2025, 2:22 a.m.

Reference frame: TEME

Reference center: EARTH

Epoch: July 8, 2025, 6:38 p.m. UTC

TLE line 0: 0 COSMOS 2303

TLE line 1: 1 23445U 94086E 25189.77705660 .00000011 00000-0 32497-5 0 9990

TLE line 2: 2 23445 82.5731 204.5263 0009896 262.1339 271.4539 12.60550662404716

Live tracking on map

Real-time ground track for satellite COSMOS 2303.

In-orbit conjunctions

A list of the most updated potential collisions computed for object COSMOS 2303.

Target Orbit TCA Probability of collision Miss distance Type
COSMOS 1691 LEO 2025-04-10 15:00:26 0.0001595671 230.0 (m) PAYLOAD
FENGYUN 1C DEB SSO 2024-12-16 23:50:51 0.0001911644 158.0 (m) DEBRIS

Associated space launch

Second generation store-dump military communications satellites

COSMOS 2303 was lifted into orbit during the mission ‘Tsiklon-3 | Strela-3 107 to 112’, on board a Tsiklon-3 space rocket.

The launch took place on Dec. 26, 1994, 10:26 p.m. from 32/2.

For more information about the launch, click the button.

Launch to space Tsiklon-3 | Strela-3 107 to 112
Tsiklon-3 | Strela-3 107 to 112

Agency: N/A

Status: Launch Successful

Launch date: Dec. 26, 1994, 10:26 p.m. UTC

Rocket: Tsiklon-3

Launch pad: 32/2

Location: Plesetsk Cosmodrome, Russian Federation

...

Latest news about this satellite

There are no fresh news available about this satellite. Check back as we update our databases every day.


Newsletter sign-up

Weekly statistics, charts and insights to help you stay on top of the space industry.